• In Czech Republic
  • List of Countries
  • For 7 days
  • Water Temperature
  • Satellite Maps
  • Weather Map
  • Weather Widgets
  • user-avatar
    Login

    Hourly Weather Papalotla

    Today, 18 January, Thursday

    Time Temperature Precipitation Wind Pressure Humidity
    00:00 +7°C° 0 mm 3 mps 581 mmHg 75%
    01:00 +7°C° 0 mm 2 mps 580 mmHg 77%
    02:00 +7°C° 0 mm 2 mps 580 mmHg 78%
    03:00 +6°C° 0 mm 2 mps 580 mmHg 79%
    04:00 +6°C° 0 mm 2 mps 580 mmHg 80%
    05:00 +6°C° 0 mm 2 mps 579 mmHg 81%
    06:00 +7°C° 0 mm 2 mps 580 mmHg 75%
    07:00 +8°C° 0 mm 2 mps 581 mmHg 70%
    08:00 +9°C° 0 mm 2 mps 582 mmHg 64%
    09:00 +12°C° 0 mm 2 mps 582 mmHg 56%
    10:00 +14°C° 0 mm 2 mps 583 mmHg 47%
    11:00 +16°C° 0 mm 3 mps 584 mmHg 39%
    12:00 +17°C° 0 mm 3 mps 583 mmHg 37%
    13:00 +17°C° 0 mm 3 mps 583 mmHg 36%
    14:00 +18°C° 0 mm 3 mps 582 mmHg 34%
    15:00 +17°C° 0 mm 3 mps 582 mmHg 38%
    16:00 +16°C° 0 mm 3 mps 581 mmHg 43%
    17:00 +14°C° 0 mm 3 mps 581 mmHg 47%
    18:00 +12°C° 0 mm 3 mps 580 mmHg 54%
    19:00 +12°C° 0 mm 2 mps 580 mmHg 62%
    20:00 +9°C° 0 mm 2 mps 580 mmHg 69%
    21:00 +9°C° 0 mm 2 mps 580 mmHg 71%
    22:00 +8°C° 0 mm 2 mps 580 mmHg 74%
    23:00 +9°C° 0 mm 1 mps 580 mmHg 76%

    Tomorrow, 19 January, Friday

    Time Temperature Precipitation Wind Pressure Humidity
    00:00 +9°C° 0 mm 1 mps 579 mmHg 76%
    01:00 +8°C° 0 mm 1 mps 579 mmHg 76%
    02:00 +8°C° 0 mm 1 mps 578 mmHg 76%
    03:00 +8°C° 0 mm 1 mps 578 mmHg 75%
    04:00 +8°C° 0 mm 1 mps 578 mmHg 73%
    05:00 +8°C° 0 mm 1 mps 578 mmHg 72%
    06:00 +9°C° 0 mm 1 mps 579 mmHg 65%
    07:00 +10°C° 0 mm 1 mps 580 mmHg 58%
    08:00 +12°C° 0 mm 1 mps 581 mmHg 51%
    09:00 +14°C° 0 mm 1 mps 581 mmHg 46%
    10:00 +16°C° 0 mm 2 mps 582 mmHg 40%
    11:00 +17°C° 0 mm 3 mps 582 mmHg 35%
    12:00 +18°C° 0 mm 3 mps 581 mmHg 34%
    13:00 +18°C° 0 mm 4 mps 581 mmHg 34%
    14:00 +19°C° 0 mm 4 mps 580 mmHg 33%
    15:00 +18°C° 0 mm 4 mps 580 mmHg 37%
    16:00 +17°C° 0 mm 3 mps 579 mmHg 40%
    17:00 +16°C° 0 mm 3 mps 579 mmHg 44%
    18:00 +14°C° 0 mm 2 mps 579 mmHg 48%
    19:00 +13°C° 0 mm 2 mps 579 mmHg 53%
    20:00 +12°C° 0 mm 1 mps 579 mmHg 57%
    21:00 +11°C° 0 mm 1 mps 579 mmHg 61%
    22:00 +11°C° 0 mm 1 mps 579 mmHg 65%
    23:00 +10°C° 0 mm 1 mps 578 mmHg 69%

    Day after tomorrow, 20 January, Saturday

    Time Temperature Precipitation Wind Pressure Humidity
    00:00 +10°C° 0 mm 1 mps 578 mmHg 70%
    01:00 +9°C° 0 mm 1 mps 577 mmHg 72%
    02:00 +9°C° 0 mm 1 mps 577 mmHg 74%
    03:00 +9°C° 0 mm 1 mps 577 mmHg 74%
    04:00 +8°C° 0 mm 1 mps 577 mmHg 75%
    05:00 +8°C° 0 mm 1 mps 577 mmHg 76%
    06:00 +10°C° 0 mm 1 mps 578 mmHg 69%
    07:00 +11°C° 0 mm 1 mps 579 mmHg 62%
    08:00 +12°C° 0 mm 0 mps 580 mmHg 55%
    09:00 +15°C° 0 mm 1 mps 581 mmHg 48%
    10:00 +18°C° 0 mm 1 mps 581 mmHg 40%
    11:00 +18°C° 0 mm 2 mps 582 mmHg 33%
    12:00 +19°C° 0 mm 2 mps 581 mmHg 31%
    13:00 +19°C° 0 mm 3 mps 581 mmHg 30%
    14:00 +20°C° 0 mm 4 mps 580 mmHg 28%
    15:00 +19°C° 0 mm 3 mps 580 mmHg 31%
    16:00 +18°C° 0 mm 3 mps 579 mmHg 35%
    17:00 +17°C° 0 mm 3 mps 579 mmHg 38%
    18:00 +15°C° 0 mm 2 mps 579 mmHg 42%
    19:00 +14°C° 0 mm 2 mps 579 mmHg 46%
    20:00 +12°C° 0 mm 1 mps 579 mmHg 49%
    21:00 +12°C° 0 mm 1 mps 578 mmHg 51%
    22:00 +12°C° 0 mm 1 mps 578 mmHg 53%
    23:00 +11°C° 0 mm 1 mps 578 mmHg 55%

    21 January, Sunday

    Time Temperature Precipitation Wind Pressure Humidity
    00:00 +11°C° 0 mm 1 mps 578 mmHg 58%
    01:00 +10°C° 0 mm 1 mps 577 mmHg 61%
    02:00 +10°C° 0 mm 1 mps 577 mmHg 64%
    03:00 +10°C° 0 mm 1 mps 576 mmHg 66%
    04:00 +9°C° 0 mm 1 mps 576 mmHg 68%
    05:00 +9°C° 0 mm 1 mps 576 mmHg 69%
    06:00 +11°C° 0 mm 1 mps 577 mmHg 63%
    07:00 +12°C° 0 mm 1 mps 578 mmHg 57%
    08:00 +14°C° 0 mm 1 mps 580 mmHg 51%
    09:00 +16°C° 0 mm 1 mps 580 mmHg 42%
    10:00 +18°C° 0 mm 2 mps 580 mmHg 33%
    11:00 +20°C° 0 mm 3 mps 581 mmHg 25%
    12:00 +20°C° 0 mm 3 mps 580 mmHg 23%
    13:00 +21°C° 0 mm 3 mps 580 mmHg 22%
    14:00 +21°C° 0 mm 3 mps 579 mmHg 20%
    15:00 +20°C° 0 mm 3 mps 579 mmHg 24%
    16:00 +19°C° 0 mm 2 mps 578 mmHg 28%
    17:00 +18°C° 0 mm 2 mps 578 mmHg 31%
    18:00 +16°C° 0 mm 2 mps 578 mmHg 34%
    19:00 +15°C° 0 mm 1 mps 578 mmHg 38%
    20:00 +13°C° 0 mm 1 mps 578 mmHg 41%
    21:00 +13°C° 0 mm 1 mps 578 mmHg 42%
    22:00 +12°C° 0 mm 1 mps 578 mmHg 42%
    23:00 +12°C° 0 mm 1 mps 578 mmHg 43%

    22 January, Monday

    Time Temperature Precipitation Wind Pressure Humidity
    00:00 +12°C° 0 mm 1 mps 577 mmHg 44%
    01:00 +11°C° 0 mm 1 mps 577 mmHg 46%
    02:00 +11°C° 0 mm 1 mps 577 mmHg 47%
    03:00 +10°C° 0 mm 1 mps 577 mmHg 50%
    04:00 +10°C° 0 mm 1 mps 577 mmHg 53%
    05:00 +9°C° 0 mm 2 mps 577 mmHg 56%
    06:00 +10°C° 0 mm 2 mps 578 mmHg 53%
    07:00 +13°C° 0 mm 2 mps 579 mmHg 51%
    08:00 +14°C° 0 mm 2 mps 580 mmHg 49%
    09:00 +16°C° 0 mm 2 mps 581 mmHg 43%
    10:00 +18°C° 0 mm 2 mps 581 mmHg 37%
    11:00 +20°C° 0 mm 3 mps 582 mmHg 32%
    12:00 +20°C° 0 mm 3 mps 582 mmHg 32%
    13:00 +21°C° 0 mm 3 mps 581 mmHg 32%
    14:00 +21°C° 0 mm 4 mps 581 mmHg 32%
    15:00 +20°C° 0 mm 4 mps 580 mmHg 38%
    16:00 +18°C° 0 mm 4 mps 580 mmHg 45%
    17:00 +17°C° 0 mm 4 mps 580 mmHg 51%
    18:00 +16°C° 0 mm 3 mps 580 mmHg 58%
    19:00 +13°C° 0 mm 3 mps 580 mmHg 66%
    20:00 +12°C° 0 mm 3 mps 580 mmHg 73%
    21:00 +11°C° 0 mm 3 mps 580 mmHg 76%
    22:00 +11°C° 0 mm 3 mps 579 mmHg 78%
    23:00 +10°C° 0 mm 2 mps 579 mmHg 81%

    23 January, Tuesday

    Time Temperature Precipitation Wind Pressure Humidity
    00:00 +10°C° 0 mm 2 mps 579 mmHg 82%
    01:00 +10°C° 0 mm 2 mps 578 mmHg 83%
    02:00 +9°C° 0 mm 2 mps 578 mmHg 84%
    03:00 +9°C° 0 mm 2 mps 578 mmHg 84%
    04:00 +9°C° 0 mm 2 mps 578 mmHg 84%
    05:00 +9°C° 0 mm 1 mps 578 mmHg 85%
    06:00 +11°C° 0 mm 1 mps 579 mmHg 78%
    07:00 +12°C° 0 mm 1 mps 580 mmHg 72%
    08:00 +13°C° 0 mm 1 mps 580 mmHg 65%
    09:00 +15°C° 0 mm 2 mps 581 mmHg 58%
    10:00 +17°C° 0 mm 2 mps 581 mmHg 50%
    11:00 +19°C° 0 mm 3 mps 582 mmHg 43%
    12:00 +20°C° 0 mm 3 mps 581 mmHg 41%
    13:00 +20°C° 0 mm 4 mps 581 mmHg 38%
    14:00 +21°C° 0 mm 4 mps 581 mmHg 36%
    15:00 +20°C° 0 mm 4 mps 580 mmHg 40%
    16:00 +19°C° 0 mm 4 mps 580 mmHg 44%
    17:00 +18°C° 0 mm 3 mps 580 mmHg 49%
    18:00 +16°C° 0 mm 3 mps 579 mmHg 55%
    19:00 +15°C° 0 mm 2 mps 579 mmHg 62%
    20:00 +13°C° 0 mm 2 mps 579 mmHg 68%
    21:00 +13°C° 0 mm 1 mps 579 mmHg 69%
    22:00 +12°C° 0 mm 1 mps 579 mmHg 71%
    23:00 +12°C° 0 mm 1 mps 579 mmHg 72%
    Show more